Regional Weather Roundup
Issued by NWS Burlington, VT

Home | Current Version | Previous Version | Text Only | Print | Product List | Glossary On
Versions: 1 2 3 4 5 6 7 8 9 10 11 12 13 14 15 16 17 18 19 20 21 22 23 24 25 26 27 28 29 30 31 32 33 34 35 36 37 38 39 40 41 42 43 44 45 46 47 48 49 50
000
ASUS41 KBTV 290330
RWRBTV
VERMONT REGIONAL WEATHER ROUNDUP
NATIONAL WEATHER SERVICE BURLINGTON VT
1100 PM EDT THU AUG 28 2014

NOTE: "FAIR" INDICATES FEW OR NO CLOUDS BELOW 12,000 FEET WITH NO
SIGNIFICANT WEATHER AND/OR OBSTRUCTIONS TO VISIBILITY.

* THESE REPORTS ARE NOT UNDER NWS QUALITY CONTROL AND/OR DO NOT
  REPORT WEATHER SUCH AS PRECIPITATION AND FOG.

VTZ001>019-290400-
_____VERMONT_____


CITY           SKY/WX    TMP DP  RH WIND       PRES   REMARKS
BURLINGTON     MOCLDY    64  51  62 NW7       30.04S
MONTPELIER     CLOUDY    58  50  75 NW10      30.07S
MORRISVILLE    CLOUDY    56  51  84 CALM      30.05S
ST. JOHNSBURY*   N/A     59  50  72 MISG      30.00S
MIDDLEBURY*    CLOUDY    58  54  85 CALM      30.04S
RUTLAND*       CLOUDY    57  50  77 CALM      30.05S
SPRINGFIELD    CLOUDY    62  47  57 NW7       30.03F
HIGHGATE*      FAIR      59  53  80 CALM      30.04R
NEWPORT*       CLOUDY    58  51  75 W7        30.04R
BENNINGTON     CLEAR     53  48  83 SE5       30.05S
SUTTON*          N/A     54 N/A N/A MISG        N/A
GALLUP MILLS*    N/A      0 N/A N/A MISG        N/A
UNION VILLAGE*   N/A     57 N/A N/A MISG        N/A
MT. MANSFIELD*   N/A     46 N/A N/A NW17        N/A

_____LAKE CHAMPLAIN_____


CITY           SKY/WX    TMP DP  RH WIND       PRES   REMARKS
BURTON ISLAND*   N/A     64  55  72 W3          N/A
COLCHESTER RF*   N/A     64  54  68 NW17        N/A
DIAMOND ISL*     N/A     64  52  63 NW7         N/A

$$

NYZ007-026>031-035-052-083-290400-
_____NORTHERN NEW YORK_____


CITY           SKY/WX    TMP DP  RH WIND       PRES   REMARKS
PLATTSBURGH    PTCLDY    61  51  70 NW6       30.04R
SARANAC LAKE   CLOUDY    55  49  80 VRB3      30.08R
MASSENA        CLEAR     57  53  86 W3        30.08S
OGDENSBURG*    CLEAR     57  52  82 NW3       30.10R
POTSDAM*       CLEAR     54  54 100 SW3       30.10R
PARISHVILLE*     N/A     54 N/A N/A W2          N/A
WATERTOWN      CLEAR     52  47  83 SE3       30.11R
FT DRUM        CLEAR     50  48  95 SW2       30.11R
ALBANY         PTCLDY    60  52  74 NW5       30.06R
GLENS FALLS    MOCLDY    63  49  60 N6        30.04R

$$
NHZ002-005-011-290400-
_____NEW HAMPSHIRE_____


CITY           SKY/WX    TMP DP  RH WIND       PRES   REMARKS
LEBANON        CLOUDY    62  47  57 NW5       30.02S
KEENE          CLEAR     54  43  66 CALM      30.04R
MT WASHINGTON  FOG       37  37 100 N35G47      N/A  VSB 0
PLYMOUTH       FAIR      60  53  77 NW12      30.00R
WHITEFIELD     CLOUDY    57  51  80 CALM      30.02R

$$

_____REGIONAL QUEBEC LOCATIONS_____


CITY           SKY/WX    TMP DP  RH WIND       PRES   REMARKS
MONTREAL       CLEAR     61  54  77 NW7       30.04R
QUEBEC CITY    DRIZZLE   55  52  88 E10G18    30.04R
SHERBROOKE     CLOUDY    55  52  88 W6        30.01R

_____REGIONAL ONTARIO LOCATIONS_____


CITY           SKY/WX    TMP DP  RH WIND       PRES   REMARKS
OTTAWA         CLEAR     55  54  94 W7        30.09R

______KEY______
VSB  - VISIBILITY IN MILES
WCI  - WIND CHILL INDEX
HX   - HEAT INDEX
$$
NNNN



USA.gov is the U.S. government's official web portal to all federal, state and local government web resources and services.